Retour au catalogue

NasbSat-1

ActifScienceSSO
NORAD 67289·PAYLOAD·🇧🇾 Belarus

Lancé Dec 28, 2025 depuis Vostochny Cosmodrome

Loading…

Prochains Passages (prochaines 24 heures)

TLE

FraisSource: Space-Track

Époque: Sep 14, 2026, 11:32 UTC

1 67289U 25313AT  26257.48085340  .00010306  00000-0  37999-3 0  9990
2 67289  97.3860 331.7860 0009586  47.3798 312.8248 15.27944594 39618

Suivez NasbSat-1 en temps réel avec AllMySat

Download on the App Store